Temperature
19 19 19 19 19 18 18 18 18 18 18 18 17 17 17 17 17 17 16 16 16 16 16 16 16 16 16 16 16 16 16 16 16 16 16 16 16 16 16 16 15 16 16
19 19 19 19 18 18 18 18 18 18 18 17 17 17 17 17 17 17 16 16 16 16 16 16 16 16 16 16 16 16 16 16 16 16 16 16 15 15 15 15 15 15 15
19 19 19 18 18 18 18 18 18 18 18 17 17 17 17 17 17 16 16 16 16 16 16 16 16 16 16 15 15 16 16 16 15 15 16 15 15 15 15 15 15 15 15
18 18 18 18 18 18 18 18 18 17 17 17 17 17 17 16 16 16 16 16 16 16 16 16 15 15 15 15 15 15 15 15 15 15 15 15 15 15 15 15 15 15 15
18 18 17 17 17 17 17 17 17 17 17 17 17 16 16 16 16 16 16 16 16 15 15 15 15 15 15 15 15 15 15 15 15 15 15 15 15 15 15 15 15 14 14
18 17 17 17 17 17 17 17 17 17 17 17 16 16 16 16 16 16 16 15 15 15 15 15 15 15 15 15 15 15 15 14 14 15 15 15 15 15 14 14 14 14 14
17 17 17 17 17 16 16 16 16 16 16 16 16 16 16 16 15 15 15 15 15 15 15 15 15 15 15 15 15 15 14 14 14 14 14 14 14 14 14 14 14 14 14
17 17 16 16 16 16 16 16 16 16 16 16 16 15 15 15 15 15 15 15 15 15 15 15 15 14 15 14 14 14 14 14 14 14 14 14 14 14 14 14 13 13 13
16 16 16 16 16 15 16 16 16 15 15 15 15 15 15 15 15 15 15 14 14 14 14 14 14 14 14 14 14 14 14 14 14 14 14 14 14 14 13 13 13 13 13
16 16 16 15 15 15 15 15 15 15 15 15 14 14 14 14 14 15 14 14 13 14 14 14 14 14 14 14 14 14 13 14 13 13 13 13 13 13 13 13 13 12 13
16 15 15 15 15 15 15 15 14 14 14 14 14 14 14 14 14 14 14 13 13 13 13 13 14 14 14 14 14 13 13 13 13 13 13 13 13 13 12 12 12 12 12
15 15 15 15 15 14 14 14 14 14 14 14 13 13 13 13 13 13 13 13 13 13 13 13 13 13 14 14 13 13 13 13 13 13 13 12 12 12 12 12 12 12 12
14 14 14 14 14 14 14 14 13 13 13 13 13 13 13 13 13 13 13 13 13 13 13 13 13 13 13 13 13 13 13 12 12 12 12 12 12 12 12 12 12 12 12
14 14 14 14 13 13 13 13 13 13 13 13 13 13 13 13 13 13 13 13 13 13 12 13 13 13 12 12 12 12 12 12 12 12 12 12 11 11 11 11 11 11 11
13 13 13 13 13 13 13 13 13 13 13 13 13 13 13 12 13 13 12 12 12 12 12 12 12 12 12 12 12 12 11 11 11 11 11 11 11 11 11 11 11 11 11
12 12 13 13 13 13 12 12 12 12 12 12 12 12 12 12 12 12 12 12 12 12 12 12 12 12 12 12 12 12 11 11 11 11 11 11 11 11 11 11 11 11 11
12 12 12 12 12 12 12 12 12 12 12 12 12 12 12 12 12 12 12 12 12 11 11 11 11 11 11 11 11 11 11 11 11 11 11 10 10 10 10 10 10 10 10
11 12 12 12 12 12 12 12 12 12 12 11 11 11 11 11 11 12 12 11 11 11 11 11 11 11 10 10 10 10 10 10 10 10 10 10 10 10 10 10 10 10 10
11 11 11 11 11 12 12 12 11 11 11 11 11 11 11 11 11 11 11 11 11 11 11 11 10 10 10 10 10 10 10 10 10 10 10 10 10 10 10 10 10 10 10
11 11 11 11 11 11 11 11 11 11 11 11 11 11 11 11 10 10 10 10 10 10 10 10 10 10 9 9 9 9 9 9 9 9 9 9 9 9 9 9 9 9 9
11 11 11 11 11 11 11 11 11 11 11 11 11 10 10 10 10 10 10 10 10 9 9 9 9 9 9 9 9 9 9 9 9 9 9 9 9 9 9 9 9 9 9
11 11 11 11 11 11 11 11 11 11 10 10 10 10 10 10 10 9 9 9 9 9 9 9 9 9 9 8 8 8 8 8 8 8 8 8 8 8 8 8 9 9 8
11 11 11 11 10 10 10 10 10 10 10 10 10 10 10 9 9 9 9 9 9 9 8 8 8 8 8 8 8 8 8 8 8 8 8 8 8 8 8 8 8 8 8
11 11 11 11 10 10 10 10 10 10 10 10 10 9 9 9 9 9 9 9 8 8 8 8 8 8 7 7 7 7 7 7 7 7 7 7 7 7 7 8 8 8 8
10 10 10 10 10 10 10 10 9 9 9 9 9 9 9 9 9 9 8 8 8 8 8 7 7 7 7 7 7 7 7 7 7 7 7 7 7 7 7 7 7 7 7
10 10 10 10 9 9 9 9 9 9 9 9 9 8 8 8 8 8 8 8 8 7 7 7 7 7 7 7 7 6 6 7 7 7 6 6 6 6 6 6 7 7 7
Wind_Speed
10 9 8 8 8 8 7 7 6 6 6 6 5 5 5 5 5 5 6 5 6 6 6 6 6 6 5 6 5 6 6 7 8 7 5 4 5 6 4 6 8 8 9
9 9 9 8 8 8 8 7 7 7 7 6 6 6 6 5 5 6 6 6 6 7 7 6 7 6 7 7 6 7 7 7 8 8 6 5 6 7 6 6 6 7 6
10 9 9 9 8 8 8 7 7 7 7 7 6 6 6 5 6 6 6 6 7 7 7 7 7 7 7 6 7 7 7 7 7 8 8 5 6 6 6 6 6 5 6
10 9 9 9 8 8 7 7 6 6 7 6 7 6 6 6 6 6 6 7 7 7 7 7 8 7 8 7 7 7 7 7 7 7 7 6 6 6 5 6 5 5 5
9 9 9 8 8 7 6 6 6 6 7 6 6 6 6 6 6 6 6 7 7 8 8 8 8 7 7 7 7 7 7 7 7 7 7 7 6 5 6 6 6 5 5
8 8 8 7 7 7 7 6 6 6 6 6 6 6 6 5 3 3 5 6 7 8 8 7 8 8 8 8 8 8 8 8 8 8 8 8 7 7 6 6 6 6 5
8 8 8 8 7 7 7 6 6 6 6 6 6 6 6 5 4 4 5 6 7 7 7 7 7 7 7 8 8 9 9 9 10 10 10 10 8 7 6 7 7 8 7
7 7 7 7 7 6 6 6 6 5 5 5 6 6 6 5 4 5 5 7 7 7 8 8 8 8 7 7 8 8 8 8 8 9 9 9 8 7 7 8 8 8 8
6 6 6 6 6 7 7 6 5 5 5 5 5 5 5 5 4 5 6 6 6 8 8 8 8 8 5 6 8 8 8 8 7 7 7 7 6 6 6 6 7 7 7
5 5 5 5 5 6 5 5 4 4 4 4 4 4 5 5 4 5 7 6 6 7 7 7 7 7 5 5 8 8 9 8 6 5 5 7 7 7 8 8 8 8 6
4 4 4 4 4 4 4 4 4 3 3 4 4 4 4 4 3 4 5 6 6 6 6 6 5 4 5 6 8 8 7 7 7 6 6 6 6 6 6 7 6 7 7
3 4 3 3 3 3 4 3 3 3 3 4 4 4 3 3 3 3 5 6 7 6 6 5 3 3 4 7 7 6 6 7 6 6 5 5 5 5 5 5 6 7 7
3 3 3 3 2 2 3 3 3 3 3 3 3 4 3 3 3 4 5 6 6 5 4 3 3 4 6 6 8 8 7 6 6 6 6 6 5 5 5 4 5 6 7
3 3 3 3 2 2 2 2 2 3 3 3 3 4 3 2 2 2 3 3 4 5 4 3 4 6 6 5 5 5 6 5 5 6 5 5 5 5 5 5 5 6 6
3 3 3 3 2 2 1 0 1 1 1 3 3 3 3 3 2 3 3 3 3 3 3 4 3 3 3 3 3 3 4 4 5 5 5 5 5 5 5 5 5 6 6
3 2 2 1 2 1 1 1 2 1 2 2 4 3 1 1 1 1 2 2 2 3 3 3 3 3 3 3 4 4 4 4 4 5 5 5 5 6 5 5 6 6 7
2 2 1 2 2 2 1 1 1 0 1 0 1 2 2 1 1 1 1 1 2 3 2 2 2 3 3 3 4 4 4 4 4 4 5 5 5 5 5 6 6 7 7
2 2 2 1 1 1 1 1 1 1 0 0 1 2 1 1 1 1 2 1 1 1 2 2 3 3 3 3 4 4 4 4 4 5 5 5 5 6 6 6 6 7 7
1 1 1 1 1 1 1 1 1 1 1 1 1 2 2 1 1 1 1 1 2 2 2 2 3 3 4 3 3 4 4 4 5 5 5 5 5 5 6 6 6 6 7
2 2 1 1 1 1 1 1 1 1 1 1 1 1 1 1 1 1 1 2 3 3 3 3 3 4 4 4 4 4 5 5 5 5 5 5 5 5 6 7 6 6 6
2 2 3 1 1 0 1 1 1 1 1 1 1 2 2 2 2 2 2 2 3 3 4 4 4 4 4 4 4 4 5 5 4 5 5 5 5 5 5 5 6 6 5
1 1 1 1 0 0 1 1 2 1 1 1 1 1 2 2 2 2 2 2 2 3 3 3 3 3 3 4 4 4 4 5 5 5 5 5 5 6 6 5 5 5 4
1 1 1 1 0 0 1 1 1 1 2 2 1 2 1 1 2 2 2 2 3 3 3 3 3 3 4 4 4 4 4 5 5 6 6 6 6 6 6 6 6 6 6
1 0 0 0 0 1 1 1 1 1 2 2 2 2 2 2 2 2 2 2 2 3 3 3 3 4 5 5 4 4 4 6 6 6 7 7 7 6 6 6 7 7 7
1 1 1 1 1 1 2 1 1 1 2 2 2 2 2 2 2 2 3 2 3 3 4 4 3 4 5 6 6 6 6 7 7 7 7 6 7 7 7 7 7 7 7
0 0 1 1 1 2 2 2 2 2 2 2 3 3 3 3 3 3 3 3 3 3 4 4 4 5 5 5 6 7 6 6 7 8 8 6 7 6 6 6 8 7 8
Wind_Direction
191 193 197 197 199 202 206 208 210 211 209 210 213 217 220 220 220 225 237 232 233 237 240 237 240 252 251 246 243 244 246 250 258 265 262 247 237 254 241 243 239 230 218
189 192 192 193 199 203 205 206 208 211 213 211 212 214 220 219 219 224 234 236 238 240 242 242 240 237 240 250 249 247 248 247 251 261 263 252 240 242 242 244 243 236 236
187 190 192 196 204 207 207 206 208 211 214 215 212 215 219 220 220 224 233 239 243 244 243 241 242 241 243 244 247 250 251 248 247 253 258 252 251 241 238 238 243 237 238
186 190 193 198 202 206 208 207 210 213 216 218 217 220 221 223 224 228 233 237 241 245 244 244 245 241 243 246 247 248 253 253 248 250 252 250 247 236 231 238 238 228 233
185 190 192 192 194 197 199 203 207 213 217 218 220 220 223 225 227 230 237 241 242 244 242 241 242 244 255 256 259 256 253 254 254 248 248 248 245 235 237 240 241 239 230
188 191 189 190 192 193 193 199 203 209 216 216 221 221 223 229 202 223 246 246 245 244 242 240 240 233 237 236 251 261 264 260 260 257 252 250 246 242 243 246 242 240 245
189 190 189 191 193 194 197 200 205 210 213 217 222 222 224 226 194 203 237 250 248 247 246 246 250 243 236 245 237 233 244 251 254 257 257 256 254 247 244 243 240 241 246
189 190 190 191 191 192 197 201 206 211 216 222 224 228 231 222 190 209 230 241 248 248 247 245 248 253 250 256 257 253 249 246 243 245 254 259 259 255 245 244 244 245 247
185 187 189 192 194 195 200 202 206 213 219 226 230 230 232 230 199 211 233 243 246 250 250 248 248 249 248 256 253 254 255 254 238 234 247 254 262 256 245 244 240 241 246
184 186 188 192 197 196 196 198 205 210 218 226 229 232 235 242 212 212 235 243 247 251 249 245 241 248 249 245 249 252 255 256 258 245 236 240 243 237 224 230 237 239 247
179 182 186 190 198 195 189 191 199 207 216 230 231 233 231 237 215 208 229 248 253 255 256 252 241 215 235 237 249 252 255 260 252 247 244 242 238 236 231 227 233 240 245
183 178 176 180 193 179 178 188 199 208 216 228 228 235 230 225 222 201 210 238 269 258 260 263 255 202 236 242 244 249 248 253 248 245 246 247 248 247 243 242 239 243 248
177 171 169 172 178 176 187 196 206 216 230 242 239 241 244 235 206 181 202 228 252 258 270 293 274 223 225 231 229 233 233 241 244 243 245 250 252 249 248 243 239 234 238
171 172 170 168 169 160 203 210 215 225 237 253 257 250 252 255 255 242 242 240 237 248 268 261 229 228 232 237 235 232 239 249 252 251 255 255 252 245 240 239 241 240 241
163 172 180 171 148 149 148 263 240 275 298 288 282 269 267 265 319 346 281 267 270 270 269 262 263 262 256 255 254 258 257 249 247 250 252 254 249 243 242 243 243 241 244
171 171 174 170 155 165 152 132 61 9 38 4 341 315 315 11 20 1 340 315 302 286 277 269 273 269 266 266 264 261 257 258 257 256 252 251 252 251 247 245 246 245 246
153 168 194 184 174 183 191 200 203 109 146 213 313 329 316 319 319 293 286 275 263 242 270 287 285 281 275 270 270 269 271 269 266 260 257 256 256 254 252 247 244 246 248
155 153 188 181 183 185 196 218 245 261 238 329 136 145 178 233 255 241 226 246 296 257 289 289 285 283 279 278 277 275 274 273 268 264 260 259 256 256 254 250 246 249 252
168 162 164 164 183 191 204 231 247 271 298 324 39 99 125 147 175 225 235 314 317 318 320 311 306 300 296 293 290 284 280 278 274 269 265 264 262 261 261 262 259 247 248
145 117 153 171 181 193 217 250 269 281 303 327 338 1 31 3 1 22 10 340 332 332 327 322 318 312 307 306 307 300 291 284 280 275 274 273 270 265 265 266 264 261 256
146 138 161 188 167 225 297 314 309 302 313 323 341 27 11 313 317 332 330 329 327 324 321 322 325 321 317 311 310 304 299 300 297 291 287 284 283 276 272 267 264 261 262
150 153 160 139 96 344 334 317 303 308 318 316 317 93 158 283 316 320 322 326 322 316 314 313 317 322 321 317 312 309 305 302 303 302 295 288 280 275 269 262 260 262 258
165 159 161 160 201 157 263 299 313 312 306 309 316 327 317 319 319 317 316 319 325 324 328 324 317 321 326 324 320 311 303 303 301 298 295 291 286 279 272 266 263 265 260
143 126 78 48 343 319 317 318 319 313 312 322 328 329 321 318 324 335 330 337 334 330 329 329 328 329 328 325 321 315 318 320 309 297 293 287 282 279 276 270 265 264 262
114 101 67 1 330 327 323 321 325 315 306 303 304 304 306 311 317 324 326 331 326 322 324 325 329 329 327 324 323 333 355 345 322 306 291 281 276 274 271 271 269 270 267
103 55 353 327 316 305 297 305 318 318 314 312 308 303 304 305 307 311 312 312 310 307 310 314 324 332 334 334 349 360 357 341 324 309 296 285 281 277 276 271 270 268 268
Height
1509 1511 1514 1516 1518 1520 1521 1522 1524 1525 1526 1526 1527 1528 1529 1529 1530 1530 1532 1532 1532 1533 1533 1533 1533 1534 1535 1535 1535 1536 1536 1536 1535 1535 1535 1534 1533 1533 1533 1532 1532 1532 1532
1506 1508 1511 1513 1515 1516 1518 1519 1520 1521 1523 1523 1524 1525 1525 1526 1527 1527 1528 1529 1529 1530 1530 1530 1530 1530 1530 1531 1531 1532 1532 1531 1531 1530 1530 1530 1529 1529 1528 1528 1529 1529 1529
1503 1505 1507 1509 1511 1513 1514 1515 1517 1518 1519 1520 1520 1521 1522 1523 1524 1524 1525 1525 1526 1526 1526 1526 1526 1526 1526 1527 1527 1527 1527 1527 1527 1526 1526 1526 1525 1525 1525 1525 1525 1524 1525
1500 1502 1504 1506 1508 1509 1511 1512 1514 1515 1516 1516 1517 1518 1518 1519 1520 1520 1521 1521 1521 1522 1522 1522 1522 1522 1522 1523 1523 1522 1522 1522 1522 1522 1521 1521 1521 1521 1521 1521 1521 1521 1521
1497 1499 1501 1503 1505 1506 1507 1509 1510 1511 1512 1513 1513 1514 1515 1516 1516 1516 1516 1517 1517 1517 1517 1518 1518 1518 1518 1518 1519 1518 1518 1518 1518 1517 1517 1517 1517 1517 1517 1517 1518 1518 1518
1494 1496 1498 1500 1501 1503 1504 1505 1506 1507 1509 1509 1510 1510 1511 1512 1512 1512 1512 1512 1513 1513 1513 1513 1513 1513 1513 1514 1513 1513 1513 1513 1513 1512 1512 1512 1512 1512 1513 1513 1514 1514 1514
1491 1493 1495 1497 1498 1500 1501 1502 1503 1504 1505 1505 1506 1506 1507 1508 1508 1508 1508 1508 1508 1508 1508 1508 1509 1510 1509 1509 1508 1508 1508 1508 1508 1508 1507 1507 1507 1508 1508 1508 1509 1509 1509
1488 1490 1492 1493 1495 1496 1497 1498 1499 1500 1501 1502 1502 1503 1503 1503 1504 1504 1504 1504 1504 1504 1504 1504 1504 1504 1504 1504 1504 1504 1504 1503 1503 1502 1502 1501 1502 1502 1503 1504 1504 1504 1504
1486 1487 1489 1490 1491 1492 1493 1494 1495 1496 1496 1497 1498 1499 1499 1499 1499 1499 1500 1499 1499 1499 1500 1500 1500 1500 1500 1500 1500 1499 1499 1498 1498 1497 1497 1497 1496 1496 1497 1498 1499 1500 1499
1482 1484 1486 1487 1488 1489 1490 1491 1492 1492 1493 1493 1494 1494 1494 1495 1495 1495 1495 1495 1495 1495 1495 1495 1495 1495 1495 1495 1495 1495 1494 1494 1494 1493 1493 1492 1492 1491 1492 1493 1494 1495 1494
1480 1481 1483 1484 1486 1486 1487 1488 1489 1489 1489 1490 1490 1490 1490 1490 1490 1490 1490 1490 1491 1491 1491 1491 1490 1490 1490 1490 1490 1490 1490 1490 1490 1489 1489 1488 1488 1488 1488 1488 1488 1489 1490
1478 1479 1480 1481 1483 1484 1484 1485 1486 1486 1486 1487 1487 1486 1486 1486 1486 1485 1485 1486 1486 1487 1487 1487 1486 1485 1485 1485 1485 1485 1485 1485 1485 1485 1484 1484 1484 1484 1484 1484 1484 1484 1484
1475 1476 1477 1479 1480 1481 1481 1482 1483 1483 1484 1484 1483 1483 1483 1483 1482 1482 1482 1482 1482 1482 1482 1482 1481 1480 1480 1480 1480 1480 1480 1480 1480 1480 1480 1480 1480 1480 1480 1480 1480 1480 1480
1473 1474 1475 1476 1477 1478 1479 1480 1481 1481 1481 1481 1480 1479 1479 1479 1479 1479 1478 1478 1478 1478 1478 1477 1476 1476 1476 1476 1475 1475 1476 1476 1475 1475 1475 1475 1476 1476 1476 1475 1476 1476 1476
1470 1471 1473 1474 1475 1476 1476 1477 1478 1478 1478 1478 1477 1476 1476 1476 1476 1475 1475 1475 1475 1474 1473 1473 1473 1473 1472 1472 1472 1472 1472 1472 1471 1471 1471 1471 1471 1471 1471 1472 1471 1471 1472
1468 1469 1471 1472 1473 1474 1475 1476 1476 1476 1475 1474 1474 1473 1473 1473 1473 1472 1472 1472 1471 1471 1471 1470 1470 1470 1469 1468 1468 1468 1468 1468 1467 1467 1467 1466 1467 1467 1467 1467 1467 1467 1466
1467 1468 1470 1471 1472 1473 1474 1474 1474 1473 1473 1472 1472 1471 1471 1471 1470 1470 1469 1469 1469 1468 1468 1468 1467 1467 1466 1465 1465 1464 1465 1464 1464 1463 1462 1462 1462 1462 1462 1462 1462 1462 1462
1467 1468 1469 1470 1471 1471 1472 1472 1472 1472 1472 1471 1470 1470 1469 1468 1468 1467 1467 1466 1466 1466 1465 1465 1464 1464 1463 1462 1462 1461 1461 1461 1460 1460 1459 1458 1458 1458 1458 1457 1457 1457 1457
1466 1467 1468 1468 1469 1470 1470 1471 1471 1471 1471 1470 1469 1468 1467 1467 1466 1465 1464 1464 1464 1464 1463 1462 1462 1462 1461 1460 1459 1458 1458 1457 1456 1455 1455 1455 1455 1454 1454 1453 1453 1452 1452
1466 1466 1466 1467 1468 1469 1469 1469 1469 1469 1469 1468 1468 1467 1466 1466 1465 1464 1464 1463 1462 1462 1461 1461 1460 1459 1458 1457 1456 1455 1454 1453 1452 1452 1451 1451 1451 1450 1450 1449 1449 1448 1448
1466 1466 1466 1467 1467 1468 1468 1468 1468 1468 1467 1467 1467 1466 1465 1465 1465 1464 1463 1462 1462 1461 1460 1459 1458 1456 1455 1454 1453 1452 1451 1450 1449 1448 1447 1447 1447 1446 1445 1445 1444 1444 1444
1466 1466 1466 1466 1466 1466 1466 1466 1466 1466 1466 1466 1465 1465 1464 1464 1463 1463 1462 1461 1460 1459 1458 1457 1455 1454 1453 1452 1450 1449 1448 1447 1446 1444 1443 1443 1442 1441 1441 1440 1440 1440 1439
1465 1465 1465 1465 1466 1465 1465 1465 1465 1465 1464 1464 1464 1463 1462 1462 1462 1461 1460 1459 1458 1457 1456 1455 1453 1452 1450 1449 1447 1446 1445 1444 1443 1441 1440 1439 1438 1437 1437 1436 1436 1436 1435
1464 1464 1464 1465 1465 1465 1465 1464 1464 1464 1463 1463 1462 1461 1460 1460 1459 1459 1458 1457 1456 1455 1454 1452 1451 1449 1447 1446 1445 1443 1442 1440 1439 1437 1436 1435 1434 1433 1433 1432 1432 1432 1432
1464 1464 1464 1464 1464 1464 1463 1463 1463 1462 1462 1461 1460 1460 1459 1458 1457 1456 1455 1454 1453 1453 1451 1449 1448 1446 1444 1443 1441 1440 1438 1436 1435 1434 1432 1431 1430 1429 1428 1428 1428 1428 1427
1463 1463 1463 1463 1463 1462 1462 1461 1461 1460 1460 1459 1458 1457 1456 1455 1455 1454 1453 1452 1451 1450 1449 1447 1446 1444 1442 1440 1438 1436 1434 1432 1431 1430 1428 1427 1426 1425 1424 1424 1423 1423 1423